Miscellaneous Local Product
Issued by NWS Hastings, NE

Home | Current Version | Previous Version | Graphics & Text | Print | Product List | Glossary On
Versions: 1 2 3 4 5 6 7 8 9 10 11 12 13 14 15 16 17 18 19 20 21 22 23 24 25 26 27 28 29 30 31 32 33 34 35 36 37 38 39 40 41 42 43 44 45 46 47 48 49 50
292
AXUS43 KGID 110302
MISGRI

GID CWA HOURLY WEATHER ROUNDUP
NATIONAL WEATHER SERVICE HASTINGS NE
900 PM CST SAT DEC 10 2016

NOTE: "FAIR" INDICATES FEW OR NO CLOUDS BELOW 12,000 FEET WITH NO
SIGNIFICANT WEATHER AND/OR OBSTRUCTIONS TO VISIBILITY.

...SOUTH CENTRAL NEBRASKA...

CITY           SKY/WX    TMP DP  RH WIND       PRES   REMARKS
GRAND ISLAND   CLOUDY    31  23  72 S15       29.82F WCI  20
HASTINGS       CLOUDY    31  22  69 SE9       29.83F WCI  23
KEARNEY        CLOUDY    30  21  69 SE6       29.79F WCI  24
ORD            CLOUDY    29  19  66 SE9       29.79F WCI  20
YORK           CLOUDY    32  23  69 SE9       29.87F WCI  24
AURORA         CLOUDY    31  22  68 SE12      29.84F WCI  22
LEXINGTON      CLOUDY    31  24  75 S5        29.77F WCI  26
HOLDREGE       CLOUDY    30  24  78 SE9       29.77F WCI  21
HEBRON         CLOUDY    31  22  68 SE9       29.88F WCI  23

...NEBRASKA PANHANDLE...

CITY           SKY/WX    TMP DP  RH WIND       PRES   REMARKS
CHADRON        CLOUDY     6   3  87 N7        29.68R WCI  -6
ALLIANCE       CLOUDY    26  22  84 S9        29.61F WCI  17
SCOTTSBLUFF    CLOUDY    22  17  81 NE8       29.64F WCI  12
SIDNEY         CLOUDY    34  27  75 SW10      29.67F WCI  26

...WESTERN AND NORTH CENTRAL NEBRASKA...

CITY           SKY/WX    TMP DP  RH WIND       PRES   REMARKS
VALENTINE      CLOUDY    12   9  87 E5        29.70F WCI   4
AINSWORTH      CLOUDY    28  24  85 S9        29.71F WCI  19
ONEILL         CLOUDY    27  22  80 SE7       29.81F WCI  20
BROKEN BOW     CLOUDY    30  23  75 S7        29.76F WCI  23
IMPERIAL       CLOUDY    28  24  85 CALM      29.73F
NORTH PLATTE   CLOUDY    28  22  78 CALM      29.74F
MCCOOK         CLOUDY    27  23  85 E3        29.75F

...EASTERN NEBRASKA...

CITY           SKY/WX    TMP DP  RH WIND       PRES   REMARKS
NORFOLK        CLOUDY    26  18  71 SE10      29.87F WCI  16
SO SIOUX CITY  CLOUDY    28  20  71 E15       29.97F WCI  16
TEKAMAH        CLOUDY    28  20  71 SE12      29.96F WCI  18
COLUMBUS       CLOUDY    30  18  59 SE7       29.89F WCI  23
ALBION         CLOUDY    28  19  69 SE7       29.86S WCI  21
OMAHA EPPLEY   CLOUDY    32  19  58 SE14      29.97F WCI  22
OFFUTT AFB     MOCLDY    31  20  64 SE15      29.95F WCI  21
MILLARD        MOCLDY    33  21  61 SE13      29.95F WCI  24
LINCOLN        CLOUDY    32  21  64 SE13      29.92F WCI  22
NEBRASKA CITY  MOCLDY    32  18  57 SE9       29.97F WCI  24
BEATRICE       CLOUDY    32  23  68 SE8       29.92S WCI  25
FALLS CITY     CLOUDY    32  22  66 SE10      29.97F WCI  24

...NORTHERN KANSAS...

CITY           SKY/WX    TMP DP  RH WIND       PRES   REMARKS
GOODLAND       CLOUDY    30  24  78 S8        29.73F WCI  22
HILL CITY      CLOUDY    31  24  75 S7        29.78F WCI  24
NORTON         CLEAR     28  19  69 E5        29.76F WCI  23
PHILLIPSBURG   CLEAR     30  25  80 NE5       29.82S WCI  25
SMITH CENTER   CLEAR     27  23  86 E9        29.82F WCI  17
BELOIT         CLEAR     34  23  64 SE7       29.85F WCI  28
HAYS           CLOUDY    31  26  82 SE10      29.77F WCI  22
RUSSELL        CLOUDY    35  26  69 S16       29.78F WCI  25
CONCORDIA      CLOUDY    32  24  72 SE7       29.87F WCI  26
SALINA         CLOUDY    37  26  64 SE14      29.87F WCI  28
TOPEKA         CLOUDY    35  21  56 E7        29.98F WCI  29



USA.gov is the U.S. government's official web portal to all federal, state and local government web resources and services.